{"data":{"norad_id":62673,"intl_designator":"2025-009BS","name":"LEO EXPRESS 2","alt_names":[],"object_type":"PAYLOAD","status":"ACTIVE","operator":null,"country":"US","launch_date":"2025-01-14","launch_site_code":"AFWTR","launch_vehicle":null,"mission":null,"orbit_class":"UNKNOWN","rcs_meters":null,"size_class":null,"mass_kg":null,"dimensions":null,"purposes":[],"wikipedia_slug":null,"has_3d_model":false,"image_url":null,"decayed_at":null,"tle_current":{"epoch":"2026-05-25T03:53:56.943168Z","epoch_age_seconds":64499,"freshness":"FRESH","line1":"1 62673U 25009BS  26145.16246462  .00006479  00000+0  25721-3 0  9994","line2":"2 62673  97.4419 219.3130 0004672 111.0737 249.1001 15.25680419133081","mean_motion":15.25680419,"eccentricity":0.0004672,"inclination_deg":97.4419,"raan_deg":219.313,"arg_perigee_deg":111.0737,"mean_anomaly_deg":249.1001,"bstar":0.00025721,"rev_number":13308,"period_min":94.384117543033,"perigee_km":485.53481942842,"apogee_km":491.95123212451,"semimajor_km":6866.8800257765,"source":"CELESTRAK","updated_at":"2026-05-25T13:38:03.165779Z"}}}